This demonstration page uses our WeatherBlox Daily Observations layout. Learn more.

40.92945, -100.16068

Hourly Observations for July 27, 2015

Temp ( °F °C ) Dew Point ( °F °C ) Humidity (%) Winds ( mph kmh ) Pressure ( in mb ) Visibility ( mi km ) Precip ( " mm )
12:15 am 00:15 Cloudy with Rain 70 21 66 19.1 89 89 SSE 12 19 29.88 1012 10 16.0934 0.04 1.016
12:35 am 00:35 Cloudy with Light Rain 71 21.5 66 18.7 84 84 ESE 17 28 29.83 1010 10 16.0934 0.07 1.778
12:55 am 00:55 Mostly Cloudy with Light Rain 69 20.5 66 18.8 90 90 SSE 15 24 29.83 1010 10 16.0934 0.08 2.032
1:15 am 01:15 Mostly Cloudy with Light Rain 73 22.5 64 17.7 74 74 SSE 9 15 29.8 1009 10 16.0934 0.01 0.254
1:35 am 01:35 Mostly Cloudy with Light Rain 73 22.5 64 17.6 74 74 SE 12 19 29.77 1008 10 16.0934 0.01 0.254
1:55 am 01:55 Partly Cloudy with Light Drizzle 71 21.7 64 17.7 78 78 S 14 22 29.83 1010 10 16.0934 0.01 0.254
2:15 am 02:15 Clear 71 21.9 64 17.7 77 77 SSE 13 20 29.83 1010 10 16.0934 N/A
2:35 am 02:35 Clear 73 22.5 63 17.4 73 73 S 12 19 29.8 1009 10 16.0934 N/A
2:55 am 02:55 Clear 72 22.1 64 17.5 75 75 S 8 13 29.83 1010 10 16.0934 N/A
3:15 am 03:15 Clear 71 21.7 64 17.6 78 78 S 6 9 29.83 1010 10 16.0934 N/A
3:35 am 03:35 Clear 71 21.7 64 17.7 78 78 SSW 5 7 29.83 1010 10 16.0934 N/A
3:55 am 03:55 Partly Cloudy 72 22 64 17.5 76 76 SSW 3 6 29.83 1010 10 16.0934 0 0
4:15 am 04:15 Mostly Cloudy 72 22.3 64 17.5 74 74 SSW 3 6 29.83 1010 10 16.0934 N/A
4:35 am 04:35 Partly Cloudy 72 22.2 63 17.4 74 74 SSW 5 7 29.83 1010 10 16.0934 N/A
4:55 am 04:55 Partly Cloudy 71 21.9 64 17.5 76 76 Calm 29.83 1010 10 16.0934 N/A
5:15 am 05:15 Clear 71 21.7 64 17.8 79 79 SW 3 6 29.8 1009 10 16.0934 N/A
5:35 am 05:35 Partly Cloudy 70 21.1 64 18 83 83 WNW 3 6 29.8 1009 10 16.0934 N/A
5:55 am 05:55 Mostly Cloudy 70 21 65 18.1 84 84 W 5 7 29.8 1009 10 16.0934 N/A
6:15 am 06:15 Partly Cloudy 70 21.2 65 18.1 83 83 WSW 3 6 29.8 1009 10 16.0934 N/A
6:35 am 06:35 Partly Cloudy 70 21.1 65 18.5 85 85 SW 6 9 29.8 1009 10 16.0934 N/A
6:55 am 06:55 Partly Cloudy 70 21.3 65 18.3 83 83 Calm 29.8 1009 10 16.0934 0 0
7:15 am 07:15 Sunny 71 21.4 65 18.5 84 84 Calm 29.8 1009 10 16.0934 N/A
7:35 am 07:35 Partly Cloudy 71 21.6 66 18.9 85 85 E 5 7 29.8 1009 10 16.0934 N/A
7:55 am 07:55 Partly Cloudy 72 22.2 66 18.8 81 81 SE 5 7 29.83 1010 10 16.0934 N/A
8:15 am 08:15 Sunny 73 22.9 66 18.9 78 78 E 7 11 29.8 1009 10 16.0934 N/A
8:35 am 08:35 Sunny 74 23.1 66 19.1 78 78 ESE 7 11 29.8 1009 10 16.0934 N/A
8:55 am 08:55 Partly Cloudy 74 23.1 67 19.7 81 81 ESE 5 7 29.8 1009 10 16.0934 N/A
9:15 am 09:15 Partly Cloudy 74 23.2 67 19.5 80 80 ESE 5 7 29.8 1009 10 16.0934 N/A
9:35 am 09:35 Partly Cloudy 74 23.4 67 19.6 79 79 SE 5 7 29.8 1009 10 16.0934 N/A
9:55 am 09:55 Sunny 76 24.5 67 19.5 74 74 SE 6 9 29.8 1009 10 16.0934 N/A
10:15 am 10:15 Sunny 77 25.1 68 19.8 73 73 S 6 9 29.8 1009 10 16.0934 N/A
10:35 am 10:35 Sunny 78 25.4 69 20.5 74 74 SSE 7 11 29.8 1009 10 16.0934 N/A
10:55 am 10:55 Sunny 81 27 69 20.8 69 69 SSE 7 11 29.77 1008 10 16.0934 N/A
11:15 am 11:15 Sunny 82 28 69 20.3 63 63 S 9 15 29.74 1007 10 16.0934 N/A
11:35 am 11:35 Sunny 84 28.7 68 20.1 60 60 S 14 22 29.74 1007 10 16.0934 N/A
11:55 am 11:55 Sunny 85 29.3 69 20.7 60 60 SSE 12 19 29.74 1007 10 16.0934 N/A
12:15 pm 12:15 Sunny 85 29.6 69 20.3 57 57 SSE 10 17 29.71 1006 10 16.0934 N/A
12:35 pm 12:35 Sunny 85 29.6 69 20.7 59 59 SSE 14 22 29.71 1006 10 16.0934 N/A
12:55 pm 12:55 Sunny 85 29.6 70 21.1 60 60 SSE 14 22 29.71 1006 10 16.0934 N/A
1:15 pm 13:15 Sunny 87 30.5 70 21.1 57 57 SSE 17 28 29.71 1006 10 16.0934 N/A
1:35 pm 13:35 Sunny 88 30.9 71 21.6 58 58 SSE 17 28 29.68 1005 10 16.0934 N/A
1:55 pm 13:55 Sunny 89 31.8 70 21.3 54 54 SSE 15 24 29.68 1005 10 16.0934 N/A
2:15 pm 14:15 Sunny 90 32 70 21 52 52 SSE 13 20 29.65 1004 10 16.0934 N/A
2:35 pm 14:35 Sunny 90 32.1 71 21.4 53 53 SSE 18 30 29.65 1004 10 16.0934 N/A
2:55 pm 14:55 Sunny 91 32.7 71 21.8 53 53 SSE 16 26 29.62 1003 10 16.0934 N/A
3:15 pm 15:15 Sunny 91 32.9 71 21.5 51 51 SSE 20 31 29.62 1003 10 16.0934 N/A
3:35 pm 15:35 Sunny 91 32.7 71 21.6 52 52 SSE 18 30 29.62 1003 10 16.0934 N/A
3:55 pm 15:55 Sunny 92 33.2 71 21.7 51 51 SSE 17 28 29.62 1003 10 16.0934 N/A
4:15 pm 16:15 Sunny 91 33 71 21.9 52 52 SSE 18 30 29.59 1002 10 16.0934 N/A
4:35 pm 16:35 Sunny 92 33.5 72 22.2 52 52 SSE 15 24 29.59 1002 10 16.0934 N/A
4:55 pm 16:55 Partly Cloudy 91 33 72 22.1 53 53 SSE 16 26 29.59 1002 10 16.0934 N/A
5:15 pm 17:15 Partly Cloudy 91 33 73 22.5 54 54 SSE 20 31 29.56 1001 10 16.0934 N/A
5:35 pm 17:35 Partly Cloudy 91 32.8 73 22.7 55 55 SSE 18 30 29.56 1001 10 16.0934 N/A
5:55 pm 17:55 Sunny 92 33.2 73 22.7 54 54 SSE 20 31 29.56 1001 10 16.0934 N/A
6:15 pm 18:15 Partly Cloudy 92 33.2 73 22.9 55 55 SSE 18 30 29.56 1001 10 16.0934 N/A
6:35 pm 18:35 Sunny 92 33.1 73 22.6 54 54 SSE 16 26 29.56 1001 10 16.0934 N/A
6:55 pm 18:55 Sunny 91 32.6 73 22.8 56 56 SSE 17 28 29.56 1001 10 16.0934 N/A
7:15 pm 19:15 Sunny 90 32.1 73 22.8 58 58 SSE 17 28 29.56 1001 10 16.0934 N/A
7:35 pm 19:35 Sunny 89 31.6 73 22.8 60 60 SE 12 19 29.53 1000 10 16.0934 N/A
7:55 pm 19:55 Sunny 88 31.3 73 23 61 61 SE 14 22 29.56 1001 10 16.0934 N/A
8:15 pm 20:15 Sunny 87 30.8 73 23 63 63 SSE 13 20 29.56 1001 10 16.0934 N/A
8:35 pm 20:35 Sunny 86 30.2 72 22.4 63 63 SSE 15 24 29.56 1001 10 16.0934 N/A
8:55 pm 20:55 Sunny 86 29.9 71 21.8 62 62 SSE 16 26 29.56 1001 10 16.0934 N/A
9:15 pm 21:15 Clear 85 29.4 71 21.5 63 63 SSE 16 26 29.56 1001 10 16.0934 N/A
9:35 pm 21:35 Clear 84 29.1 70 21 62 62 SSE 14 22 29.56 1001 10 16.0934 N/A
9:55 pm 21:55 Clear 84 28.9 70 20.9 62 62 SE 10 17 29.59 1002 10 16.0934 N/A
10:15 pm 22:15 Clear 83 28.5 69 20.7 63 63 SE 9 15 29.59 1002 10 16.0934 N/A
10:35 pm 22:35 Clear 82 28 70 21 66 66 SE 10 17 29.62 1003 10 16.0934 N/A
10:55 pm 22:55 Clear 82 27.7 69 20.7 66 66 SE 10 17 29.62 1003 10 16.0934 N/A
11:15 pm 23:15 Clear 81 27.4 69 20.5 66 66 SE 12 19 29.62 1003 10 16.0934 N/A
11:35 pm 23:35 Clear 81 27.3 68 20.1 65 65 SE 13 20 29.62 1003 10 16.0934 N/A
11:55 pm 23:55 Clear 82 27.8 67 19.7 61 61 SSE 14 22 29.62 1003 10 16.0934 N/A

Powered by AerisWeather